sat.trackr.live / text

‹ back to catalog

STARLINK-31487

NORAD 59297 · 2024-056B

PAYLOAD ACTIVE UNKNOWN

§ Identity

Operator
Country
US
Launch date
2024-03-24
Launch site
AFETR
Launch vehicle
Mass (kg)
RCS (m²)

Purposes: comms

External: N2YO · Heavens-Above · Gunter

§ Orbital elements

Epoch: 2026-05-25T01:44:45.243168Z

Period
94.27 min
Inclination
43.0004°
Eccentricity
0.0001263
Mean motion
15.27576552 rev/d
Perigee alt
482.2 km
Apogee alt
483.9 km
Semi-major
6,861.2 km
B*
4.0317e-5
RAAN
159.5528°
Arg perigee
278.3579°
Mean anomaly
81.7129°
Rev number
12,295

§ Raw data

STARLINK-314871 59297U 24056B   26145.07274587  .00000847  00000+0  40317-4 0  99942 59297  43.0004 159.5528 0001263 278.3579  81.7129 15.27576552122955

JSON: /api/v1/satellites/59297 · /tle

For live sub-satellite position, see the globe view (requires WebGL).

§ Visibility from observer

Set your observer location to see the next 7 days of passes ≥ 10°. The values pass through the URL so the page stays shareable.

No JS? Fill the form by hand. The geolocation button needs JavaScript.